Regional Weather Roundup
Issued by NWS

Home | Current Version | Previous Version | Text Only | Print | Product List | Glossary Off
Versions: 1 2 3 4 5 6 7 8 9 10 11 12 13 14 15 16 17 18 19 20 21 22 23 24 25 26 27 28 29 30 31 32 33 34 35 36 37 38 39 40 41 42 43 44 45 46 47 48 49 50

322
ASUS43 KFSD 171902
RWRSD

WEATHER ROUNDUP FOR SOUTH DAKOTA
NATIONAL WEATHER SERVICE SIOUX FALLS SD
100 PM CST SAT FEB 17 2018

NOTE: "FAIR" INDICATES FEW OR NO CLOUDS BELOW 12,000 FEET WITH NO
SIGNIFICANT WEATHER AND/OR OBSTRUCTIONS TO VISIBILITY.


SDZ001>005-009-010-012>017-172000-
NORTHWEST AND NORTH CENTRAL SOUTH DAKOTA

CITY           SKY/WX    TMP DP  RH WIND       PRES   REMARKS
BUFFALO          N/A     21  12  68 W13       29.91F WCI   9
FAITH            N/A     21  15  78 NW16      30.02R WCI   7
MOBRIDGE       SUNNY     27  16  63 NW15      29.99F WCI  15
$$

SDZ012>016-024>037-041>051-057-063-072>074-172000-
SOUTHWEST AND SOUTH CENTRAL SOUTH DAKOTA

CITY           SKY/WX    TMP DP  RH WIND       PRES   REMARKS
RAPID CTY ARPT PTSUNNY   29  21  72 N10       30.00S WCI  20
PIERRE         MOSUNNY   27  20  75 NW12      30.06R WCI  17
CUSTER         PTSUNNY   28  13  53 W15G24    29.91F WCI  16
ELLSWORTH AFB  CLOUDY    26  21  81 N15       29.99F WCI  14
PHILIP         SUNNY     31  20  63 N15       30.04F WCI  20
PINE RIDGE     SUNNY     35  22  58 W10       30.03F WCI  27
SPEARFISH        N/A     23  19  86 NE7       29.96F WCI  15
WINNER         CLOUDY    33  26  75 NW18      30.06S WCI  22
$$

SDZ004>011-016>023-039-040-172000-
NORTHEAST SOUTH DAKOTA

CITY           SKY/WX    TMP DP  RH WIND       PRES   REMARKS
ABERDEEN       MOSUNNY   34  14  43 NW17G26   30.01S WCI  23
WATERTOWN      PTSUNNY   31  17  56 NW17      29.94S WCI  19
BROOKINGS      SUNNY     33  20  58 NW18      29.95S WCI  22
SISSETON         N/A     33  10  38 NW24G31   29.94S WCI  20
$$

SDZ017-020-022-023-036>040-048>070-172000-
SOUTHEAST SOUTH DAKOTA

CITY           SKY/WX    TMP DP  RH WIND       PRES   REMARKS
SIOUX FALLS    MOSUNNY   32  26  78 W14       29.99R WCI  22
HURON          CLOUDY    31  22  69 NW14      30.04R WCI  21
CHAMBERLAIN    CLOUDY    32  28  83 W16       30.07R WCI  21
MITCHELL       PTSUNNY   31  25  78 NW16      30.05R WCI  20
YANKTON        CLOUDY    32  26  78 NW20      30.04R WCI  20
$$

ABBREVIATIONS USED IN REMARKS
   TC - TEMPERATURE IN CELSIUS
  WCI - WIND CHILL INDEX
   HX - HEAT INDEX
  VSB - VISIBILITY





USA.gov is the U.S. government's official web portal to all federal, state and local government web resources and services.